Starlink 32424

operational
NORAD ID: 61548 Int'l Des: 2024-184 Owner: SPXS Country: US Constellation: starlink
LEOCIRCULAR

关于 Starlink 32424

正在加载描述...

实时位置

正在加载3D地球...

即将过境

高度历史

Altitude vs Time

uPlot chart will show altitude changes over time

两行轨道根数

1 61548U 24184S 26035.83203519 .00000988 00000-0 45494-4 0 9995
2 61548 53.1589 166.7534 0001053 68.6459 291.4654 15.30185401 73476
Epoch: Feb 4, 2026 • Age: 20 hours

当前状态

高度 490.2 km
速度 7.62 km/s
星下点 -42.72°S, 13.38°E
发射日期 Oct 15, 2024
运行时间 1.3 years
类型 internet

技术详情

分类 Payload
质量 730.00 kg
干质量 700.00 kg
总质量 730.00 kg
长度 0.30 m
直径 4.10 m
跨度 29.00 m
形状 Box + pan
制造商 SPXS
平台类型 Starlink V2M
阶段状态 In Orbit
所有者/国家 SPXS/US

大型星座

Loading constellations...